TimeMST,TemperatureF,Dew PointF,Humidity,Sea Level PressureIn,VisibilityMPH,Wind Direction,Wind SpeedMPH,Gust SpeedMPH,PrecipitationIn,Events,Conditions,WindDirDegrees,DateUTC
12:53 AM,19.9,18.0,92,30.18,10.0,Variable,3.5,-,N/A,,Partly Cloudy,0,2012-11-17 07:53:00
1:53 AM,19.9,17.1,89,30.18,10.0,ENE,6.9,-,N/A,,Clear,70,2012-11-17 08:53:00
2:53 AM,21.0,18.0,88,30.18,10.0,ENE,3.5,-,N/A,,Clear,70,2012-11-17 09:53:00
3:53 AM,19.9,17.1,89,30.17,10.0,Calm,Calm,-,N/A,,Clear,0,2012-11-17 10:53:00
4:53 AM,19.4,15.8,86,30.15,10.0,East,3.5,-,N/A,,Overcast,80,2012-11-17 11:53:00
5:53 AM,21.0,19.0,92,30.20,10.0,Calm,Calm,-,N/A,,Overcast,0,2012-11-17 12:53:00
6:53 AM,21.9,19.0,89,30.20,10.0,ENE,3.5,-,N/A,,Overcast,60,2012-11-17 13:53:00
7:53 AM,23.0,19.9,88,30.21,10.0,NE,3.5,-,N/A,,Overcast,40,2012-11-17 14:53:00
8:53 AM,25.0,21.0,85,30.22,10.0,NNE,3.5,-,N/A,,Overcast,20,2012-11-17 15:53:00
9:53 AM,28.9,25.0,85,30.21,10.0,East,3.5,-,N/A,,Overcast,90,2012-11-17 16:53:00
10:53 AM,32.0,25.0,75,30.20,10.0,East,3.5,-,0.00,,Overcast,90,2012-11-17 17:53:00
11:39 AM,33.8,26.6,75,30.14,10.0,ESE,4.6,-,N/A,,Overcast,120,2012-11-17 18:39:00
11:53 AM,35.1,27.0,72,30.16,10.0,Calm,Calm,-,N/A,,Overcast,0,2012-11-17 18:53:00
12:18 PM,35.6,28.4,75,30.13,10.0,ESE,3.5,-,N/A,,Overcast,110,2012-11-17 19:18:00
12:53 PM,39.9,28.9,65,30.12,10.0,South,9.2,-,N/A,,Overcast,170,2012-11-17 19:53:00
1:53 PM,39.0,30.0,70,30.11,10.0,SE,5.8,-,N/A,,Mostly Cloudy,130,2012-11-17 20:53:00
2:53 PM,39.9,30.0,68,30.08,10.0,SE,5.8,-,N/A,,Overcast,130,2012-11-17 21:53:00
3:53 PM,39.0,30.0,70,30.09,10.0,East,5.8,-,N/A,,Overcast,90,2012-11-17 22:53:00
4:51 PM,37.4,30.2,75,30.07,10.0,East,4.6,-,N/A,,Overcast,90,2012-11-17 23:51:00
4:53 PM,37.9,30.0,73,30.09,10.0,East,5.8,-,N/A,,Overcast,90,2012-11-17 23:53:00
5:53 PM,36.0,30.0,79,30.08,10.0,SSE,6.9,-,0.00,Rain,Light Rain,160,2012-11-18 00:53:00
6:31 PM,35.6,33.8,93,30.07,10.0,SW,4.6,-,0.00,Rain,Light Rain,220,2012-11-18 01:31:00
6:53 PM,35.1,32.0,89,30.08,10.0,South,5.8,-,0.00,,Overcast,190,2012-11-18 01:53:00
7:04 PM,35.6,33.8,93,30.06,10.0,SSE,4.6,-,N/A,,Overcast,150,2012-11-18 02:04:00
7:39 PM,33.8,32.0,93,30.05,10.0,SSW,4.6,-,N/A,,Overcast,200,2012-11-18 02:39:00
7:53 PM,34.0,32.0,92,30.06,9.0,Calm,Calm,-,N/A,,Overcast,0,2012-11-18 02:53:00
8:18 PM,33.8,30.2,87,30.04,7.0,Calm,Calm,-,N/A,,Overcast,0,2012-11-18 03:18:00
8:53 PM,33.1,30.9,92,30.06,6.0,NE,4.6,-,N/A,,Overcast,50,2012-11-18 03:53:00
9:02 PM,33.8,30.2,87,30.04,6.0,East,3.5,-,N/A,,Overcast,90,2012-11-18 04:02:00
9:53 PM,32.0,30.0,92,30.02,10.0,East,4.6,-,0.00,,Overcast,100,2012-11-18 04:53:00
10:12 PM,32.0,30.2,93,30.02,10.0,Calm,Calm,-,N/A,,Overcast,0,2012-11-18 05:12:00
10:42 PM,33.8,30.2,87,30.02,4.0,SSE,5.8,-,0.00,Snow,Light Snow,160,2012-11-18 05:42:00
10:53 PM,33.1,30.9,92,29.99,5.0,SSE,5.8,-,0.00,Snow,Light Snow,160,2012-11-18 05:53:00
11:18 PM,33.8,32.0,93,30.02,4.0,Calm,Calm,-,0.00,Rain,Light Rain,0,2012-11-18 06:18:00
11:42 PM,33.8,32.0,93,30.02,3.0,South,5.8,-,0.00,Rain,Light Rain,180,2012-11-18 06:42:00
11:47 PM,32.0,32.0,100,30.02,1.8,South,4.6,-,0.00,Rain,Light Rain,190,2012-11-18 06:47:00
11:53 PM,32.0,32.0,100,30.02,1.0,South,4.6,-,N/A,Rain,Light Rain,180,2012-11-18 06:53:00